Regional Weather Roundup
Issued by NWS

Home | Current Version | Previous Version | Graphics & Text | Print | Product List | Glossary On
Versions: 1 2 3 4 5 6 7 8 9 10 11 12 13 14 15 16 17 18 19 20 21 22 23 24 25 26 27 28 29 30 31 32 33 34 35 36 37 38 39 40 41 42 43 44 45 46 47 48 49 50
000
ASUS43 KTOP 251608
RWRKS

WEATHER ROUNDUP FOR KANSAS
NATIONAL WEATHER SERVICE GOODLAND KS
1100 AM CDT MON SEP 25 2017

NOTE:  "FAIR" INDICATES FEW OR NO CLOUDS BELOW 12,000 FEET WITH NO
SIGNIFICANT WEATHER AND/OR OBSTRUCTIONS TO VISIBILITY.

KSZ001>006-013>018-027>032-041>047-251700-
NORTHWEST KANSAS

CITY           SKY/WX    TMP DP  RH WIND       PRES   REMARKS
GOODLAND       CLOUDY    49  48  97 N15G23    30.04S
HAYS           CLOUDY    58  56  93 N16       29.91F FOG
HILL CITY      LGT RAIN  54  53  97 N21G28    29.98F FOG
RUSSELL        LGT RAIN  60  59  96 NE15      29.89F
$$

KSZ061>065-074>080-084>089-251700-
SOUTHWEST KANSAS

CITY           SKY/WX    TMP DP  RH WIND       PRES   REMARKS
DODGE CITY     FOG       60  59  96 N14       29.92F VSB 1/2
GARDEN CITY    CLOUDY    57  55  93 N18       29.96F FOG
GREAT BEND     LGT RAIN  64  63  96 E14       29.94R
LIBERAL        CLOUDY    62  59  90 N13       29.94F
PRATT          CLOUDY    65  62  90 SE8       29.89F
$$

KSZ066>073-081>083-090>101-251700-
SOUTHEAST KANSAS

CITY           SKY/WX    TMP DP  RH WIND       PRES   REMARKS
CHANUTE        SUNNY     81  67  62 S13       29.96S
COFFEYVILLE    SUNNY     81  67  62 S13       29.94F
HUTCHINSON     LGT RAIN  69  68  96 S6        29.91S FOG
MEDICINE LODGE   N/A     70  67  90 SE7       29.87R
NEWTON         CLOUDY    73  64  73 S10       29.92S
PARSONS        SUNNY     80  67  64 S8        29.96F
WICHITA INTL   LGT RAIN  74  68  81 S6        29.91S
WICHITA JABRA  CLOUDY    75  66  73 S10       29.92S
WICHITA MCCONL CLOUDY    76  64  68 S7        29.91F
WINFIELD       SUNNY     83  68  60 S14G23    29.93S
$$

KSZ007>012-019>026-033>040-048>060-102>105-251700-
NORTHEAST KANSAS

CITY           SKY/WX    TMP DP  RH WIND       PRES   REMARKS
CONCORDIA      RAIN      63  63 100 E6        29.94R FOG
EMPORIA        SUNNY     80  67  64 S14       29.93S
LAWRENCE       SUNNY     80  69  69 S7        29.94S
MANHATTAN      CLOUDY    82  67  60 SW12      29.90S
MARYSVILLE     CLOUDY    64  64 100 N5        29.94F
OLATHE IND     SUNNY     79  68  69 S10       29.96F
OLATHE EXE     SUNNY     78  68  71 S12       29.96F
SALINA         CLOUDY    76  66  71 W5        29.90F
TOPEKA BILLARD SUNNY     82  69  64 S10       29.92S
TOPEKA FORBES  SUNNY     83  68  60 S12       29.93R
$$




USA.gov is the U.S. government's official web portal to all federal, state and local government web resources and services.